Location: Brno
(49.2000°N, 16.6330°E)
Time: 23:11:46
(UTC+01:00)

Daily predictions for brighter satellites

Satellite Brightness Start Highest point End
(mag) Time Altitude Azimuth Time Altitude Azimuth Time Altitude Azimuth
Meteor 1-24 Rocket 3.9 18:35:25 10° N 18:40:41 48° ENE 18:46:02 10° SSE
Meteor 2-5 Rocket 3.8 18:36:05 10° N 18:41:46 79° ENE 18:47:33 10° SSE
Tiangong 1 2.7 18:43:31 10° WSW 18:45:54 22° S 18:48:17 10° SE
Cosmos 405 3.1 18:45:37 10° S 18:49:03 52° E 18:52:30 10° NNE
Resurs 01 Rocket 1.6 18:45:09 10° SSE 18:49:31 64° ENE 18:53:55 10° N
CZ-4B DEB 4.2 18:50:34 10° ESE 18:52:55 20° ENE 18:55:15 10° NNE
FENGYUN 3A 3.8 18:48:30 10° SSE 18:53:56 86° WSW 18:59:22 10° NNW
Cosmos 1939 Rocket 4.3 18:51:27 10° ESE 18:54:33 21° ENE 18:57:41 10° NNE
Cosmos 2150 Rocket 4.4 18:49:48 10° S 18:54:33 40° ESE 18:59:22 10° NE
Cosmos 2263 Rocket 3.3 18:49:48 10° SW 18:55:15 47° NW 19:00:43 10° NNE
USA 186 2.2 18:53:33 10° SE 18:55:31 24° ENE 18:57:26 10° NNE
Cosmos 1812 Rocket 3.9 18:52:47 10° SSE 18:56:58 43° E 19:01:09 10° NNE
Spot 2 Rocket 3.5 18:52:58 10° SSE 18:58:03 75° ENE 19:03:12 10° NNW
Abrixas 2.3 18:56:26 10° W 18:59:17 76° S 19:01:35 14° E
Cosmos 1953 4.0 18:57:37 10° ESE 19:00:02 15° E 19:02:27 10° NE
Cosmos 2082 Rocket 3.2 18:56:31 10° NNW 19:01:32 30° NE 19:05:53 13° ESE
Cosmos 482 Debris 3.7 19:00:32 10° WNW 19:02:22 31° N 19:03:34 15° ENE
COSMOS 2406 3.8 18:59:15 10° NW 19:04:55 61° WSW 19:10:32 10° S
Cosmos 2098 4.2 19:01:44 10° S 19:05:04 88° WNW 19:08:04 10° N
USA 267 3.6 19:02:35 11° E 19:08:45 56° NNE 19:15:07 10° WNW
Cosmos 1378 3.2 19:07:16 10° NNW 19:11:03 81° W 19:14:49 10° S
Cosmos 1898 Rocket 3.5 19:06:00 10° SSW 19:11:16 69° ESE 19:16:32 10° NNE
H-2A R/B 3.1 19:11:15 10° S 19:15:07 71° WSW 19:19:04 10° NNW
Cosmos 2228 4.1 19:11:44 10° SSW 19:15:51 48° WNW 19:20:00 10° N
Envisat 3.4 19:11:09 10° SE 19:15:55 43° ENE 19:20:44 10° N
Cosmos 1707 4.0 19:12:30 10° NNW 19:16:16 45° W 19:19:59 10° SSW
Cosmos 990 Rocket 4.2 19:11:31 10° S 19:16:31 47° ESE 19:21:32 10° NNE
Cosmos 1076 Rocket 4.2 19:13:08 10° N 19:17:01 33° ENE 19:19:54 16° SE
Lacrosse 5 rocket 2.5 19:14:31 10° NW 19:18:10 30° NNE 19:20:55 14° ENE
YAOGAN 6 4.2 19:17:16 17° E 19:18:18 19° ENE 19:20:57 10° NNE
RESURS DK-1 2.3 19:14:42 10° NNW 19:18:52 81° ENE 19:22:43 12° SSE
SAR-Lupe-4 3.5 19:19:27 10° SSE 19:23:01 77° ENE 19:26:37 10° NNW
Cosmos 1844 3.7 19:20:54 10° SSW 19:26:36 65° ESE 19:32:22 10° NNE
Geosat 3.9 19:22:03 10° NE 19:27:05 65° ESE 19:32:04 10° SSW
Cosmos 2084 Rocket 3.3 19:23:04 10° SW 19:27:06 78° NW 19:30:58 10° NE
Cosmos 1818 3.8 19:24:16 10° NW 19:29:40 58° NE 19:33:17 21° ESE
Cosmos 1766 3.1 19:27:04 10° S 19:30:55 73° E 19:34:49 10° NNE
SJ-11-01 4.4 19:29:02 13° SE 19:33:04 55° ENE 19:37:42 10° N
Cosmos 1934 Rocket 3.9 19:31:27 10° S 19:37:36 89° WNW 19:43:43 10° N
ARGOS 4.3 19:39:35 21° E 19:41:20 25° ENE 19:45:35 10° N
Meteor 1-22 Rocket 4.4 19:36:15 10° S 19:42:04 87° W 19:48:09 10° NNE
SAR-Lupe-1 4.2 19:38:45 10° S 19:42:19 73° WSW 19:45:56 10° NNW
Helios 1B rocket 2.4 19:38:17 10° NNE 19:42:25 64° ESE 19:46:30 10° S
Cosmos-2242 4.1 19:43:07 24° ENE 19:43:07 24° ENE 19:46:09 10° NE
Helios 1A 3.1 19:38:42 10° S 19:42:51 73° WSW 19:47:03 10° NNW
ERS-1 Rocket 3.3 19:43:36 25° SE 19:46:13 46° ENE 19:51:03 10° N
Cosmos 1937 Rocket 3.5 19:41:00 10° SSW 19:46:15 85° WNW 19:51:36 10° NNE
Cosmos 2298 Rocket 4.3 19:42:21 10° SSW 19:47:39 70° WNW 19:52:59 10° NNE
H-2A R/B 4.2 19:48:04 11° NE 19:48:04 11° NE 19:48:56 10° NE
Cosmos 1269 Rocket 4.1 19:43:41 10° NNW 19:48:55 58° ENE 19:51:40 27° SE
Cosmos 2098 Rocket 4.4 19:42:47 10° S 19:49:43 61° E 19:57:11 10° NNE
Cosmos 1544 3.0 19:47:09 13° S 19:50:19 60° E 19:53:57 10° NNE
Meteor 1-4 Rocket 2.8 19:51:31 41° E 19:51:31 41° E 19:54:37 10° NNE
CZ-3B DEB 2.5 19:44:09 10° SW 19:53:59 65° SSE 19:57:00 23° ENE
Cosmos 2344 3.6 19:47:17 10° SSW 19:54:56 75° SE 20:03:54 10° NE
Lacrosse 4 Rocket 1.7 19:54:22 10° SW 19:58:23 65° NW 20:02:27 10° NNE
Cosmos 468 4.5 19:54:23 10° NNW 19:59:38 86° WSW 20:02:58 23° SSE
Okean 3 Rocket 4.1 19:58:59 10° NNW 20:03:18 57° W 20:07:36 10° S
COSMOS 2487 2.5 20:01:53 10° NNW 20:05:26 59° ENE 20:05:35 58° ENE
Cosmos 1408 Rocket 3.5 20:01:25 10° N 20:05:54 74° E 20:07:39 36° SSE
SL-27 R/B 4.4 20:02:59 10° NW 20:06:04 28° WSW 20:09:08 10° SSW
Meteor 1-29 3.0 20:02:53 10° NNE 20:06:22 81° WNW 20:09:50 10° SSW
Cosmos 1340 Rocket 3.0 20:05:39 10° N 20:09:37 48° ENE 20:09:42 48° ENE
Cosmos 1805 3.3 20:05:48 10° SSW 20:09:42 80° WNW 20:13:38 10° N
Lacrosse 5 2.0 20:04:51 10° SSW 20:09:42 48° SE 20:10:42 42° E
Cosmos 2100 Rocket 4.1 20:06:26 19° SSE 20:10:52 54° E 20:17:03 10° NNE
Cosmos 1605 Rocket 4.2 20:06:42 10° SSW 20:12:57 72° WNW 20:19:20 10° N
SPOT 5 3.5 20:12:22 39° ESE 20:13:36 46° ENE 20:18:42 10° N
Cosmos 1674 2.5 20:10:07 10° N 20:13:53 86° ENE 20:14:27 63° SSE
Cosmos 1844 Rocket 3.7 20:08:50 10° SW 20:14:17 49° NW 20:19:46 10° NNE
BREEZE-M DEB (TANK) 3.9 20:12:43 10° SW 20:16:13 57° SE 20:27:43 10° ENE
USA 215 3.2 20:10:11 10° ENE 20:16:42 66° SE 20:23:11 10° SW
Cosmos 1833 Rocket 2.6 20:13:54 10° NNW 20:19:34 83° ENE 20:21:35 42° SE
Cosmos 2278 Rocket 2.1 20:14:24 10° SSW 20:20:05 88° WNW 20:25:50 10° NNE
NOAA 11 4.3 20:19:10 43° ESE 20:20:40 58° ENE 20:26:04 10° N
Tiangong 1 3.8 20:19:52 10° SW 20:20:09 11° SW 20:20:09 11° SW
Cosmos 1470 3.6 20:22:30 37° NE 20:22:30 37° NE 20:25:10 10° NNE
Cosmos 1758 3.6 20:21:20 14° SSW 20:24:41 65° W 20:28:41 10° N
SL-08 RB Rocket 4.4 20:25:00 38° ENE 20:25:00 38° ENE 20:29:07 10° N
Resurs 01 Rocket 4.5 20:23:42 10° SW 20:26:26 16° W 20:29:11 10° NW
Cosmos 1802 Rocket 4.0 20:24:41 39° SE 20:26:37 55° E 20:32:37 10° NNE
GP-B 3.7 20:24:06 15° SSW 20:27:37 57° W 20:32:01 10° N
Cosmos 1939 Rocket 3.9 20:27:06 24° SSW 20:29:12 46° W 20:33:14 10° NNW
Cosmos 2297 3.7 20:25:18 10° S 20:30:52 57° ESE 20:36:30 10° NE
Cosmos 2061 Rocket 4.0 20:29:04 31° SSE 20:32:15 66° E 20:38:38 10° NNE
Timation 2 Rocket 3.9 20:25:56 10° NNW 20:32:25 87° WSW 20:34:36 43° SSE
H-2A R/B 2.7 20:34:39 39° ENE 20:34:43 39° ENE 20:39:39 10° N
Cosmos 1953 3.0 20:33:01 16° SSW 20:36:02 54° WNW 20:40:03 10° N
Cosmos 372 Rocket 4.0 20:38:18 56° ENE 20:38:18 56° ENE 20:42:42 10° NNE
CZ-3 Stage 3 4.4 20:20:14 10° WSW 20:40:03 27° SSW 20:43:22 22° S
Timation 1 Rocket 4.2 20:34:07 10° SSW 20:40:06 77° ESE 20:46:09 10° NNE
MetOp-B 4.0 20:42:29 58° SSE 20:43:36 89° ENE 20:49:00 10° NNW
Cosmos 2082 Rocket 2.6 20:40:23 10° NW 20:46:01 60° WSW 20:47:46 41° S
Cosmos 1356 Rocket 4.2 20:44:13 10° N 20:47:15 44° NNE 20:47:15 44° NNE
SL-14 R/B 4.4 20:44:49 10° N 20:47:11 35° N 20:47:11 35° N
Meteor 1-16 Rocket 4.5 20:50:55 52° ENE 20:50:55 52° ENE 20:56:06 10° NNE
Cosmos 158 Rocket 4.4 20:45:43 10° NNW 20:50:40 56° WSW 20:51:49 45° SSW
YAOGAN 6 3.7 20:51:42 41° W 20:51:42 41° W 20:55:09 10° NNW
USA 267 3.2 20:49:55 51° SSE 20:51:40 74° SW 20:58:14 10° WNW
Cosmos 1733 4.5 20:54:27 37° N 20:54:27 37° N 20:56:56 10° N
Terra 3.1 20:54:23 28° NE 20:54:23 28° NE 20:57:24 10° N
Cosmos 494 Rocket 4.0 20:49:37 10° NNW 20:54:26 64° NE 20:54:26 64° NE
Cosmos 2151 4.0 20:53:25 10° N 20:56:17 40° N 20:56:17 40° N
Lacrosse 5 rocket 2.3 20:53:52 10° NW 20:56:37 43° NW 20:56:37 43° NW
USA 245 4.0 21:00:12 81° ESE 21:00:24 84° ENE 21:06:20 10° NNW
Cosmos 1125 Rocket 3.7 20:56:31 10° SSW 21:01:41 68° WNW 21:06:55 10° NNE
Cosmos 1459 Rocket 4.4 21:10:47 23° SSW 21:14:48 60° WNW 21:20:57 10° N
Cosmos 2173 Rocket 4.4 21:11:45 26° SSW 21:15:19 61° WNW 21:21:32 10° N
Cosmos 2058 4.4 21:11:32 10° N 21:13:51 32° N 21:13:51 32° N
SPOT 1/Viking Rocket 3.7 21:18:25 72° NW 21:18:25 72° NW 21:23:13 10° NNW
Cosmos 1864 Rocket 4.4 21:18:38 76° ENE 21:18:38 76° ENE 21:24:44 10° NNE
Cosmos-2242 4.4 21:19:55 35° W 21:20:07 35° WNW 21:24:03 10° N
ARGOS 3.4 21:21:05 61° WSW 21:21:12 61° WSW 21:26:32 10° NNW
H-2A R/B 3.7 21:25:12 29° N 21:25:12 29° N 21:27:15 10° NNW
Cosmos 2251 Rocket 3.8 21:18:35 10° NNW 21:23:15 66° NW 21:23:15 66° NW
Nimbus 7 Rocket 4.4 21:19:28 10° NNE 21:24:45 73° NNE 21:24:45 73° NNE
Lacrosse 4 Rocket 4.5 21:35:51 10° WNW 21:37:56 13° NNW 21:40:00 10° N
Cosmos 1725 Rocket 4.2 21:51:14 64° WNW 21:51:14 64° WNW 21:57:20 10° N
Lacrosse 5 3.6 21:47:44 10° WSW 21:50:01 26° W 21:50:01 26° W
USA 215 3.6 21:56:06 27° NE 21:59:43 60° NNW 22:06:06 10° W
Cosmos 2278 Rocket 4.5 22:00:41 10° W 22:05:01 22° NW 22:09:21 10° N
CZ-3B DEB 3.6 22:01:11 10° W 22:04:58 27° WNW 22:04:58 27° WNW
H-2A R/B 3.6 22:15:16 33° WNW 22:15:16 33° WNW 22:19:04 10° NNW
Terra 4.0 22:33:16 22° NW 22:33:16 22° NW 22:35:16 10° NNW
Cosmos 2297 Rocket 4.2 23:09:21 10° NNW 23:12:25 23° NNE 23:12:25 23° NNE
Cosmos 2369 Rocket 4.2 23:32:35 24° N 23:32:35 24° N 23:35:04 10° NNE
Cosmos 2227 Rocket 4.1 23:34:02 10° NNW 23:36:38 25° N 23:36:38 25° N
USA 215 4.2 23:43:25 41° NNW 23:43:25 41° NNW 23:48:19 10° WNW
ATLAS 3B R/B 4.3 23:48:26 28° NE 23:48:26 28° NE 23:51:33 10° NE
